Location: Cambridge
(43.3830°N, 80.3170°W)
Time: 08:53:01
(UTC-05:00)

Envisat - Pass Details

Date: 28 October 2019
Orbit: 764 x 766 km, 98.1° (Epoch: 12 November)

Event Time Altitude Azimuth Distance (km) Brightness Sun altitude
Rises 07:17:19 0° 26° (NNE) 3,239 6.4 -6.8°
Reaches altitude 10° 07:20:06 10° 41° (NE) 2,308 5.9 -6.3°
Maximum altitude 07:24:07 23° 93° (E) 1,582 5.9 -5.6°
Drops below altitude 10° 07:28:05 10° 145° (SE) 2,294 6.3 -4.9°
Sets 07:30:49 0° 160° (SSE) 3,215 6.8 -4.4°
